Lid_Strength_Index
1 1 1 1 3 2 2 3 3 6 5 2 2 1 0 1 1 0 1 2 2 3 3 3 2 2 2 2 1 1 1 0 -0 -0 -1 -1 -1 -1
1 1 1 2 1 1 2 2 2 3 5 2 2 2 1 1 1 1 1 2 3 3 2 2 3 3 3 3 2 2 1 1 1 1 0 -0 -0 -0
1 1 1 2 2 1 1 1 2 2 4 3 2 2 2 2 1 1 0 0 1 4 3 4 5 3 3 3 2 2 2 2 2 1 1 1 0 0
1 1 1 1 2 2 1 2 2 2 3 4 3 3 2 2 2 1 1 1 1 3 4 4 5 5 5 5 5 5 6 5 5 4 3 3 2 1
1 1 1 1 2 2 2 2 2 2 2 3 3 3 3 3 3 2 2 1 1 2 3 4 4 4 4 4 4 5 5 5 5 5 4 3 2 2
1 1 1 1 2 2 2 2 2 2 3 3 4 3 3 3 3 3 2 1 1 1 3 3 3 3 3 3 3 3 4 5 5 6 6 5 4 4
1 1 1 1 2 2 1 2 2 2 3 3 4 4 4 4 3 3 3 2 1 1 2 1 1 1 1 2 2 2 4 5 5 6 7 5 6 6
2 1 1 1 1 5 6 7 3 3 3 3 3 4 4 3 4 4 3 3 4 1 1 1 0 0 -0 -0 3 5 5 6 6 6 6 7 8 8
1 1 1 1 1 1 4 8 8 8 6 2 3 3 3 3 3 4 3 2 3 1 1 2 0 1 -0 0 4 6 6 7 7 7 7 7 8 8
1 1 1 1 1 1 1 2 3 4 4 3 2 2 1 2 2 2 1 1 1 1 1 3 1 1 -0 -1 5 6 6 7 7 7 7 7 8 8
1 1 1 1 5 9 2 2 3 4 7 9 8 9 9 8 4 1 2 3 3 2 1 2 2 2 2 1 -0 6 7 7 7 7 7 7 8 9
1 1 6 4 8 11 3 2 4 3 4 5 5 6 7 7 8 0 1 3 3 3 1 2 3 1 3 0 -0 0 2 6 7 7 7 7 8 2
2 2 1 7 10 13 10 2 3 3 5 3 3 3 3 3 2 1 0 1 2 3 1 1 2 2 2 2 1 1 1 1 1 2 8 8 9 5
2 1 1 8 12 13 10 10 12 7 3 4 3 3 3 2 1 1 0 -0 0 0 1 -0 2 2 2 3 3 1 2 1 1 2 1 4 8 9
2 3 9 12 13 11 12 12 10 3 4 3 3 3 1 1 1 1 1 0 0 -0 0 0 0 1 1 2 2 2 2 0 1 2 1 1 1 2
4 4 6 8 9 7 8 7 3 3 3 2 2 2 2 2 1 1 1 1 1 1 0 -0 -0 0 1 1 1 2 1 2 0 1 1 2 1 1
4 3 3 4 5 4 5 4 3 3 2 2 2 2 2 1 2 1 1 1 2 2 2 1 0 0 2 1 2 1 1 1 0 0 1 2 3 4
3 3 4 4 4 4 4 4 3 3 2 2 2 2 2 2 2 2 2 2 3 2 2 1 1 2 2 4 5 2 1 1 1 1 1 2 3 5
3 3 4 4 3 3 3 3 3 2 2 2 2 2 2 2 2 2 2 2 2 2 2 1 2 3 4 5 3 9 2 1 2 1 2 3 4 6
3 3 4 4 3 3 2 3 3 3 2 2 2 2 2 2 2 3 2 3 3 3 3 2 2 3 3 4 4 7 13 4 2 3 3 3 5 9
3 3 3 3 3 3 3 3 3 3 3 2 2 2 2 2 3 3 4 7 5 3 3 3 2 11 1 1 6 10 10 11 9 9 7 4 4 7
3 3 3 3 3 3 3 2 3 3 2 2 2 2 1 2 3 3 3 2 2 2 2 2 2 1 2 4 9 8 8 9 10 10 11 11 9 11
3 3 3 2 2 2 2 2 2 2 2 1 2 1 2 3 3 2 2 2 2 2 3 6 7 8 9 10 11 11 11 10 11 11 12 12 12 12